timestamp,surface_pressure_avg,surface_temp_avg,battery_voltage,lat,long
2018-03-15 00:00:00+00:00,285.9031,1.4,12.81,47.84626,-54.09684
2018-03-15 00:10:00+00:00,286.6863,1.4,12.73,47.84626,-54.09684
2018-03-15 00:20:00+00:00,280.8464,1.4,12.81,47.84626,-54.09684
2018-03-15 00:30:00+00:00,271.7681,1.4,12.81,47.84626,-54.09684
2018-03-15 00:40:00+00:00,269.7214,1.4,12.81,47.84626,-54.09684
2018-03-15 00:50:00+00:00,265.6214,1.4,12.81,47.84626,-54.09684
2018-03-15 01:00:00+00:00,255.4298,1.4,12.73,47.84626,-54.09684
2018-03-15 01:10:00+00:00,247.7747,1.4,12.73,47.84626,-54.09684
2018-03-15 01:20:00+00:00,247.2148,1.4,12.81,47.84626,-54.09684
2018-03-15 01:30:00+00:00,239.4881,1.4,12.81,47.84626,-54.09684
2018-03-15 01:40:00+00:00,227.0464,1.4,12.81,47.84626,-54.09684
2018-03-15 01:50:00+00:00,221.3598,1.4,12.81,47.84626,-54.09684
2018-03-15 02:00:00+00:00,219.6481,1.4,12.73,47.84626,-54.09684
2018-03-15 02:10:00+00:00,211.2914,1.4,12.73,47.84626,-54.09684
2018-03-15 02:20:00+00:00,202.5031,1.4,12.81,47.84626,-54.09684
2018-03-15 02:30:00+00:00,203.7764,1.4,12.81,47.84626,-54.09684
2018-03-15 02:40:00+00:00,204.5398,1.4,12.81,47.84626,-54.09684
2018-03-15 02:50:00+00:00,198.2281,1.4,12.81,47.84626,-54.09684
2018-03-15 03:00:00+00:00,195.9214,1.4,12.73,47.84626,-54.09684
2018-03-15 03:10:00+00:00,200.4431,1.4,12.73,47.84626,-54.09684
2018-03-15 03:20:00+00:00,195.5781,1.4,12.81,47.84626,-54.09684
2018-03-15 03:30:00+00:00,189.9365,1.4,12.81,47.84626,-54.09684
2018-03-15 03:40:00+00:00,193.1715,1.4,12.81,47.84626,-54.09684
2018-03-15 03:50:00+00:00,193.6832,1.4,12.81,47.84626,-54.09684
2018-03-15 04:00:00+00:00,186.8081,1.4,12.73,47.84626,-54.09684
2018-03-15 04:10:00+00:00,184.5298,1.4,12.73,47.84626,-54.09684
2018-03-15 04:20:00+00:00,189.3948,1.4,12.81,47.84626,-54.09684
2018-03-15 04:30:00+00:00,191.9548,1.4,12.81,47.84626,-54.09684
2018-03-15 04:40:00+00:00,194.2081,1.4,12.81,47.84626,-54.09684
2018-03-15 04:50:00+00:00,198.7482,1.4,12.81,47.84626,-54.09684
2018-03-15 05:00:00+00:00,204.8381,1.4,12.73,47.84626,-54.09684
2018-03-15 05:10:00+00:00,204.6931,1.4,12.73,47.84626,-54.09684
2018-03-15 05:20:00+00:00,202.6581,1.4,12.81,47.84626,-54.09684
2018-03-15 05:30:00+00:00,204.1948,1.39,12.81,47.84626,-54.09684
2018-03-15 05:40:00+00:00,204.2815,1.39,12.81,47.84626,-54.09684
2018-03-15 05:50:00+00:00,215.5365,1.36,12.81,47.84626,-54.09684
2018-03-15 06:00:00+00:00,219.0898,1.36,12.73,47.84626,-54.09684
2018-03-15 06:10:00+00:00,210.3264,1.36,12.65,47.84626,-54.09684
2018-03-15 06:20:00+00:00,223.8148,1.36,12.81,47.84626,-54.09684
2018-03-15 06:30:00+00:00,241.1848,1.37,12.81,47.84626,-54.09684
2018-03-15 06:40:00+00:00,239.9681,1.36,12.81,47.84626,-54.09684
2018-03-15 06:50:00+00:00,233.0748,1.34,12.81,47.84626,-54.09684
2018-03-15 07:00:00+00:00,249.5831,1.33,12.73,47.84626,-54.09684
2018-03-15 07:10:00+00:00,261.3364,1.35,12.65,47.84626,-54.09684
2018-03-15 07:20:00+00:00,260.0714,1.31,12.73,47.84626,-54.09684
2018-03-15 07:30:00+00:00,257.8981,1.3,12.73,47.84626,-54.09684
2018-03-15 07:40:00+00:00,278.0814,1.3,12.81,47.84626,-54.09684
2018-03-15 07:50:00+00:00,290.6097,1.3,12.81,47.84626,-54.09684
2018-03-15 08:00:00+00:00,288.3047,1.2,12.73,47.84626,-54.09684
2018-03-15 08:10:00+00:00,287.5581,1.2,12.65,47.84626,-54.09684
2018-03-15 08:20:00+00:00,300.618,1.23,12.73,47.84626,-54.09684
2018-03-15 08:30:00+00:00,304.2897,1.2,12.73,47.84626,-54.09684
2018-03-15 08:40:00+00:00,308.383,1.2,12.81,47.84626,-54.09684
2018-03-15 08:50:00+00:00,319.2713,1.29,12.81,47.84626,-54.09684
2018-03-15 09:00:00+00:00,330.0063,1.3,12.73,47.84626,-54.09684
2018-03-15 09:10:00+00:00,333.4646,1.3,12.65,47.84626,-54.09684
2018-03-15 09:20:00+00:00,340.4597,1.3,12.73,47.84626,-54.09684
2018-03-15 09:30:00+00:00,350.2313,1.32,12.73,47.84626,-54.09684
2018-03-15 09:40:00+00:00,348.2913,1.3,12.81,47.84626,-54.09684
2018-03-15 09:50:00+00:00,349.0663,1.3,12.81,47.84626,-54.09684
2018-03-15 10:00:00+00:00,348.3697,1.3,12.73,47.84626,-54.09684
2018-03-15 10:10:00+00:00,355.0029,1.3,12.65,47.84626,-54.09684
2018-03-15 10:20:00+00:00,354.4763,1.3,12.73,47.84626,-54.09684
2018-03-15 10:30:00+00:00,360.913,1.3,12.73,47.84626,-54.09684
2018-03-15 10:40:00+00:00,356.7213,1.33,12.81,47.84626,-54.09684
2018-03-15 10:50:00+00:00,355.5397,1.33,12.81,47.84626,-54.09684
2018-03-15 11:00:00+00:00,360.7197,1.32,12.73,47.84626,-54.09684
2018-03-15 11:10:00+00:00,356.9362,1.33,12.65,47.84626,-54.09684
2018-03-15 11:20:00+00:00,352.0013,1.32,12.73,47.84626,-54.09684
2018-03-15 11:30:00+00:00,358.803,1.3,12.73,47.84626,-54.09684
2018-03-15 11:40:00+00:00,363.1862,1.32,12.81,47.84626,-54.09684
2018-03-15 11:50:00+00:00,347.8796,1.3,12.81,47.84626,-54.09684
2018-03-15 12:00:00+00:00,344.2047,1.3,12.73,47.84626,-54.09684
2018-03-15 12:10:00+00:00,351.0945,1.3,12.65,47.84626,-54.09684
2018-03-15 12:20:00+00:00,335.7663,1.3,12.81,47.84626,-54.09684
2018-03-15 12:30:00+00:00,311.8214,1.2,12.81,47.84626,-54.09684
2018-03-15 12:40:00+00:00,318.133,1.29,12.81,47.84626,-54.09684
2018-03-15 12:50:00+00:00,332.9097,1.29,12.81,47.84626,-54.09684
2018-03-15 13:00:00+00:00,312.718,1.2,12.73,47.84626,-54.09684
2018-03-15 13:10:00+00:00,297.3114,1.22,12.73,47.84626,-54.09684
2018-03-15 13:20:00+00:00,298.6364,1.29,12.81,47.84626,-54.09684
2018-03-15 13:30:00+00:00,301.2814,1.29,12.81,47.84626,-54.09684
2018-03-15 13:40:00+00:00,286.5664,1.1,12.89,47.84626,-54.09684
2018-03-15 13:50:00+00:00,277.288,1.2,12.89,47.84626,-54.09684
2018-03-15 14:00:00+00:00,281.6431,1.1,12.81,47.84626,-54.09684
2018-03-15 14:10:00+00:00,271.2431,1.0,12.73,47.84626,-54.09684
2018-03-15 14:20:00+00:00,256.3698,1.0,12.81,47.84626,-54.09684
2018-03-15 14:30:00+00:00,256.0814,1.1,12.81,47.84626,-54.09684
2018-03-15 14:40:00+00:00,254.9731,1.1,12.81,47.84626,-54.09684
2018-03-15 14:50:00+00:00,242.5714,1.1,12.81,47.84626,-54.09684
2018-03-15 15:00:00+00:00,239.2148,1.2,12.81,47.84626,-54.09684
2018-03-15 15:10:00+00:00,248.6497,1.2,12.73,47.84626,-54.09684
2018-03-15 15:20:00+00:00,251.8531,1.2,12.81,47.84626,-54.09684
2018-03-15 15:30:00+00:00,240.2848,1.2,12.81,47.84626,-54.09684
2018-03-15 15:40:00+00:00,232.3981,1.2,12.81,47.84626,-54.09684
2018-03-15 15:50:00+00:00,235.3148,1.2,12.81,47.84626,-54.09684
2018-03-15 16:00:00+00:00,233.6747,1.2,12.73,47.84626,-54.09684
2018-03-15 16:10:00+00:00,218.7465,1.1,12.73,47.84626,-54.09684
2018-03-15 16:20:00+00:00,217.8731,1.18,12.81,47.84626,-54.09684
2018-03-15 16:30:00+00:00,239.0015,1.2,12.81,47.84626,-54.09684
2018-03-15 16:40:00+00:00,236.3015,1.2,12.81,47.84626,-54.09684
2018-03-15 16:50:00+00:00,216.1131,1.19,12.81,47.84626,-54.09684
2018-03-15 17:00:00+00:00,219.0298,1.2,12.73,47.84626,-54.09684
2018-03-15 17:10:00+00:00,232.133,1.26,12.73,47.84626,-54.09684
2018-03-15 17:20:00+00:00,224.9797,1.24,12.81,47.84626,-54.09684
2018-03-15 17:30:00+00:00,228.8248,1.28,12.81,47.84626,-54.09684
2018-03-15 17:40:00+00:00,238.7564,1.3,12.81,47.84626,-54.09684
2018-03-15 17:50:00+00:00,233.7097,1.29,12.81,47.84626,-54.09684
2018-03-15 18:00:00+00:00,224.3214,1.28,12.73,47.84626,-54.09684
2018-03-15 18:10:00+00:00,227.0581,1.29,12.73,47.84626,-54.09684
2018-03-15 18:20:00+00:00,237.2881,1.3,12.81,47.84626,-54.09684
2018-03-15 18:30:00+00:00,241.4464,1.3,12.81,47.84626,-54.09684
2018-03-15 18:40:00+00:00,237.0364,1.3,12.81,47.84626,-54.09684
2018-03-15 18:50:00+00:00,238.9148,1.3,12.81,47.84626,-54.09684
2018-03-15 19:00:00+00:00,246.7898,1.36,12.73,47.84626,-54.09684
2018-03-15 19:10:00+00:00,243.2947,1.37,12.73,47.84626,-54.09684
2018-03-15 19:20:00+00:00,237.1065,1.38,12.81,47.84626,-54.09684
2018-03-15 19:30:00+00:00,246.2831,1.39,12.81,47.84626,-54.09684
2018-03-15 19:40:00+00:00,259.4814,1.4,12.81,47.84626,-54.09684
2018-03-15 19:50:00+00:00,262.6364,1.4,12.81,47.84626,-54.09684
2018-03-15 20:00:00+00:00,269.9981,1.4,12.73,47.84626,-54.09684
2018-03-15 20:10:00+00:00,269.8081,1.4,12.73,47.84626,-54.09684
2018-03-15 20:20:00+00:00,275.6514,1.4,12.81,47.84626,-54.09684
2018-03-15 20:30:00+00:00,277.7514,1.4,12.81,47.84626,-54.09684
2018-03-15 20:40:00+00:00,289.968,1.4,12.81,47.84626,-54.09684
2018-03-15 20:50:00+00:00,299.8097,1.35,12.89,47.84626,-54.09684
2018-03-15 21:00:00+00:00,306.3181,1.3,12.81,47.84626,-54.09684
2018-03-15 21:10:00+00:00,313.9014,1.3,12.73,47.84626,-54.09684
2018-03-15 21:20:00+00:00,318.1347,1.35,12.81,47.84626,-54.09684
2018-03-15 21:30:00+00:00,328.8963,1.37,12.81,47.84626,-54.09684
2018-03-15 21:40:00+00:00,341.2596,1.39,12.81,47.84626,-54.09684
2018-03-15 21:50:00+00:00,338.8962,1.37,12.81,47.84626,-54.09684
2018-03-15 22:00:00+00:00,335.528,1.36,12.73,47.84626,-54.09684
2018-03-15 22:10:00+00:00,340.8729,1.37,12.73,47.84626,-54.09684
2018-03-15 22:20:00+00:00,343.1646,1.37,12.81,47.84626,-54.09684
2018-03-15 22:30:00+00:00,345.4646,1.39,12.81,47.84626,-54.09684
2018-03-15 22:40:00+00:00,348.8863,1.39,12.81,47.84626,-54.09684
2018-03-15 22:50:00+00:00,348.7729,1.36,12.81,47.84626,-54.09684
2018-03-15 23:00:00+00:00,346.3913,1.36,12.73,47.84626,-54.09684
2018-03-15 23:10:00+00:00,343.6112,1.36,12.73,47.84626,-54.09684
2018-03-15 23:20:00+00:00,345.1047,1.36,12.81,47.84626,-54.09684
2018-03-15 23:30:00+00:00,340.9597,1.37,12.81,47.84626,-54.09684
2018-03-15 23:40:00+00:00,332.823,1.35,12.81,47.84626,-54.09684
2018-03-15 23:50:00+00:00,336.588,1.34,12.81,47.84626,-54.09684
